Powrót do katalogu

SCOUT G-1 DEB

AktywnyPO
NORAD 21529·DEBRIS·🇺🇸 United States

Wystrzelony Jun 29, 1991 z Vandenberg Space Force Base

Loading…

Następne Przeloty (najbliższe 24 godziny)

TLE

ŚwieżeSource: Space-Track

Epoka: Sep 14, 2026, 12:45 UTC

1 21529U 91045C   26257.53164661  .00000489  00000-0  15123-3 0  9998
2 21529  89.5536 292.5873 0049693 200.8813 159.0360 14.39230998838412

Śledź SCOUT G-1 DEB w czasie rzeczywistym z AllMySat

Download on the App Store